Volver al catálogo

STARLINK-32945

ActivoComunicacionesVLEO
NORAD 63118·PAYLOAD·🇺🇸 United States

Lanzado Feb 27, 2025 desde Cape Canaveral Space Force Station

Loading…

Próximos Pases (próximas 24 horas)

TLE

ActualizadoSource: CelesTrak SupGP

Época: Sep 15, 2026, 02:31 UTC

1 63118C 25039Q   26258.10534722 -.00004793  00000+0 -17357-3 0  2583
2 63118  43.0047  22.8964 0002093 269.8554 222.7186 15.27583316    13

Sigue STARLINK-32945 en tiempo real con AllMySat

Download on the App Store